Zurück zum Katalog

STARLINK-35040

AktivKommunikationVLEO
NORAD 65480·PAYLOAD·🇺🇸 United States

Gestartet Sep 3, 2025 von Cape Canaveral Space Force Station

Loading…

Nächste Überflüge (nächste 24 Stunden)

TLE

AktuellSource: CelesTrak SupGP

Epoche: Sep 14, 2026, 21:46 UTC

1 65480C 25195Y   26257.90743056  .00021446  00000+0  63406-3 0  2576
2 65480  53.1577  95.5912 0001081  62.4573   3.7056 15.34358226    12

Verfolge STARLINK-35040 in Echtzeit mit AllMySat

Download on the App Store